DateTimeUTC,F1_A11,F1_S11,BsB_S11,BsG_S11,BsR_S11,BbsB_S11,BbsG_S11,BbsR_S11,BaB_A11,BaG_A11,BaR_A11,Tu_S11,T_S11,Uu_S11,U_S11,P_S11,T1_A11
2021-05-27T08:00:00Z,00000200,20000000,,,,,,,0000.11,0000.09,-000.68,17.7,24.2,11.8,07.9,0679.0,30.9
2021-05-27T08:01:00Z,00000200,20000000,,,,,,,-000.10,-000.42,-000.14,17.7,24.2,11.7,07.9,0679.0,30.9
2021-05-27T08:02:00Z,00000200,20000000,,,,,,,0000.10,0000.45,0000.46,17.7,24.2,11.6,07.8,0679.0,30.9
2021-05-27T08:03:00Z,00000200,60000000,,,,,,,0000.03,0000.11,0000.20,17.6,24.2,11.7,07.8,0679.0,30.9
2021-05-27T08:04:00Z,00000200,40000000,0000.87,-000.03,0000.04,-000.04,0000.02,-000.01,0000.64,0000.25,0000.51,17.8,24.1,11.8,08.0,0679.9,30.9
2021-05-27T08:05:00Z,00000200,00000000,0000.30,0000.12,0000.01,-000.01,-000.02,-000.12,-000.13,-000.01,-000.33,17.8,24.0,11.9,08.1,0680.0,30.9
2021-05-27T08:06:00Z,00000200,00000000,0000.29,0000.36,-000.01,0000.11,0000.33,-000.07,0000.05,-000.02,0000.25,17.8,24.0,11.9,08.2,0680.0,30.9
2021-05-27T08:07:00Z,00000200,00000000,0000.25,0000.02,0000.06,-000.03,-000.22,-000.09,0000.32,0000.15,0000.09,17.8,24.0,12.1,08.3,0679.9,30.9
2021-05-27T08:08:00Z,00000200,00000000,0000.83,-000.12,0000.03,-000.20,0000.04,-000.20,0000.26,0000.22,-000.20,17.8,24.0,12.1,08.3,0680.0,30.9
2021-05-27T08:09:00Z,00000200,00000000,-000.70,0000.46,0000.08,0000.27,0000.02,0000.19,-000.20,0000.13,0000.23,17.8,24.0,12.2,08.4,0679.9,30.9
2021-05-27T08:10:00Z,00000200,00000000,-000.50,0000.31,-000.19,0000.19,-000.03,-000.15,0000.28,0000.33,0000.13,17.9,24.0,12.2,08.4,0679.9,30.9
2021-05-27T08:11:00Z,00000200,00000000,-000.09,0000.06,-000.18,0000.78,0000.02,-000.21,0000.04,0000.15,0000.32,17.9,24.0,12.3,08.4,0679.9,30.9
2021-05-27T08:12:00Z,00000200,00000000,0000.33,0000.07,0000.26,-000.15,-000.13,-000.25,0000.38,-000.39,0000.10,17.9,24.0,12.4,08.5,0679.9,30.9
2021-05-27T08:13:00Z,00000200,00000000,0000.18,-000.11,-000.07,0000.17,-000.01,0000.04,-000.15,-000.03,-000.02,17.9,24.0,12.4,08.5,0679.9,30.9
2021-05-27T08:14:00Z,00000200,00000000,-000.09,0000.32,0000.01,0000.32,-000.11,0000.06,0000.18,0000.41,0000.13,17.9,24.0,12.4,08.5,0679.9,30.9
2021-05-27T08:15:00Z,00000200,00000000,0000.28,0000.05,0000.05,-000.20,-000.06,-000.04,0000.05,0000.17,0000.29,17.9,24.0,12.5,08.6,0679.9,30.9
2021-05-27T08:16:00Z,00000200,00000000,-000.18,0000.10,0000.07,-000.40,0000.22,-000.35,0000.24,0000.24,-000.25,17.9,24.0,12.5,08.6,0679.9,30.9
2021-05-27T08:17:00Z,00000200,00000000,0000.45,-000.05,0000.06,0000.13,-000.00,-000.03,-000.17,0000.04,0000.47,17.9,24.0,12.6,08.6,0679.8,30.9
2021-05-27T08:18:00Z,00000200,00000000,-000.06,-000.09,-000.30,0000.22,0000.03,-000.23,-000.01,-000.44,-000.36,17.9,24.0,12.6,08.6,0679.8,30.9
2021-05-27T08:19:00Z,00000200,00000000,0000.75,0000.17,0000.06,0000.54,0000.15,-000.07,0000.31,0000.55,0000.23,17.9,24.0,12.7,08.7,0679.9,30.9
2021-05-27T08:20:00Z,00000200,00000000,-000.44,0000.18,-000.05,0000.11,-000.09,-000.36,-000.25,-000.02,-000.01,17.9,24.0,12.7,08.7,0679.9,30.9
2021-05-27T08:21:00Z,00000200,00000000,0000.32,0000.32,-000.23,-000.20,-000.14,-000.27,0000.39,0000.27,0000.25,17.9,24.0,12.7,08.7,0679.9,30.9
2021-05-27T08:22:00Z,00000200,00000000,-000.04,0000.30,-000.05,0000.16,0000.18,-000.03,0000.07,-000.02,-000.10,17.9,24.0,12.7,08.7,0679.9,30.9
2021-05-27T08:23:00Z,00000200,00000000,0000.08,0000.44,-000.01,0000.46,-000.04,-000.30,-000.15,-000.46,0000.08,17.9,24.0,12.7,08.7,0679.9,30.9
2021-05-27T08:24:00Z,00000200,00000000,0000.22,0000.26,-000.17,0000.37,0000.02,-000.10,0000.31,0000.24,0000.05,17.9,24.0,12.8,08.8,0679.9,30.9
2021-05-27T08:25:00Z,00000200,00000000,0000.27,0000.09,-000.05,0000.01,-000.01,-000.23,0000.29,0000.98,0000.41,17.9,24.0,12.9,08.9,0679.9,30.9
2021-05-27T08:26:00Z,00000200,00000000,0000.02,0000.24,0000.26,0000.20,0000.03,0000.06,0000.12,0000.02,0000.25,17.9,24.0,12.9,08.8,0679.9,30.9
2021-05-27T08:27:00Z,00000200,00000000,0000.31,0000.33,0000.12,0000.51,0000.28,-000.23,0000.29,-000.12,0000.31,17.9,24.0,12.8,08.8,0679.9,30.9
2021-05-27T08:28:00Z,00000200,00000000,-000.28,0000.14,-000.03,-000.41,-000.00,-000.22,0000.08,0000.25,-000.07,17.9,24.0,13.0,09.0,0679.9,30.9
2021-05-27T08:29:00Z,00000200,00000000,0000.17,0000.13,-000.13,0000.27,0000.04,-000.16,-000.12,-000.30,-000.24,17.9,24.0,13.0,09.0,0679.9,30.9
2021-05-27T08:30:00Z,00000200,00000000,0000.27,0000.32,0000.06,0000.18,0000.14,0000.08,0000.17,0000.26,0000.24,17.9,24.0,13.1,09.0,0679.9,30.9
2021-05-27T08:31:00Z,00000200,00000000,0000.81,0000.05,-000.00,-000.50,0000.07,0000.13,0000.18,0000.37,0000.27,17.9,24.0,13.1,09.0,0679.9,30.9
2021-05-27T08:32:00Z,00000200,00000000,-000.06,0000.15,0000.18,0000.20,0000.03,0000.02,0000.27,0000.20,0000.11,17.9,24.0,13.2,09.0,0679.9,30.9
2021-05-27T08:33:00Z,00000200,00000000,-000.59,-000.02,-000.35,0000.17,0000.03,-000.11,-000.37,-000.33,0000.15,17.9,24.0,13.2,09.1,0679.9,30.9
2021-05-27T08:34:00Z,00000200,00000000,-000.31,0000.16,0000.06,-000.04,0000.09,-000.09,-000.01,0000.17,0000.08,17.9,24.0,13.3,09.1,0679.9,30.9
2021-05-27T08:35:00Z,00000200,00000000,-000.15,0000.08,0000.04,-000.10,0000.14,-000.33,0000.41,0000.04,-000.10,17.9,24.0,13.3,09.2,0679.9,30.9
2021-05-27T08:36:00Z,00000200,00000000,0000.25,0000.06,-000.22,-000.38,0000.20,-000.12,-000.27,0000.41,-000.02,17.9,24.0,13.2,09.1,0680.0,30.9
2021-05-27T08:37:00Z,00000200,00000000,-000.35,0000.15,0000.01,0000.05,-000.12,-000.03,0000.02,-000.38,-000.07,17.9,24.0,13.2,09.1,0680.0,30.9
2021-05-27T08:38:00Z,00000200,00000000,0000.02,0000.17,0000.08,0000.04,-000.14,0000.06,-000.22,-000.40,0000.05,17.9,24.0,13.2,09.1,0679.9,30.9
2021-05-27T08:39:00Z,00000200,00000000,-000.23,-000.07,0000.10,0000.20,-000.27,0000.09,0000.58,0001.00,0000.13,17.9,24.0,13.2,09.1,0679.9,30.9
2021-05-27T08:40:00Z,00000200,00000000,-000.67,-000.09,0000.18,-000.04,0000.04,-000.02,0000.12,-000.23,0000.02,17.9,24.0,13.3,09.2,0679.9,30.9
2021-05-27T08:41:00Z,00000200,00000000,0000.75,0000.25,-000.18,-000.53,0000.10,-000.13,0000.19,-000.21,0000.30,17.9,24.0,13.2,09.1,0679.9,30.9
2021-05-27T08:42:00Z,00000200,00000000,0000.48,0000.06,-000.05,0000.15,0000.06,-000.06,-000.12,-000.22,-000.06,17.9,24.0,13.1,09.0,0679.8,30.9
2021-05-27T08:43:00Z,00000200,00000000,0000.56,0000.20,-000.09,0000.10,0000.12,-000.17,-000.00,0000.39,-000.06,18.0,24.0,13.2,09.1,0679.8,30.9
2021-05-27T08:44:00Z,00000200,00000000,0000.38,-000.12,0000.09,0000.14,0000.17,-000.22,0000.11,0000.20,0000.12,18.0,24.0,13.2,09.1,0679.8,30.9
2021-05-27T08:45:00Z,00000200,00000000,-000.09,0000.22,0000.03,0000.37,-000.14,-000.11,0000.13,0000.18,0000.21,18.0,24.0,13.2,09.1,0679.8,30.9
2021-05-27T08:46:00Z,00000200,00000000,0000.22,-000.18,-000.19,0000.12,-000.20,-000.04,-000.35,-000.30,-000.01,18.0,24.0,13.2,09.1,0679.8,30.9
2021-05-27T08:47:00Z,00000200,00000000,0000.05,-000.06,-000.08,-000.02,-000.07,-000.15,0000.27,-000.13,-000.30,18.0,24.0,13.2,09.1,0679.8,30.9
2021-05-27T08:48:00Z,00000200,00000000,-000.28,0000.20,0000.15,0000.42,-000.22,-000.14,-000.22,0000.31,0000.06,18.0,24.0,13.2,09.1,0679.8,30.9
2021-05-27T08:49:00Z,00000200,00000000,0000.27,-000.17,0000.11,0000.36,-000.09,-000.02,0000.58,0000.22,0000.42,18.0,24.0,13.3,09.1,0679.8,30.9
2021-05-27T08:50:00Z,00000200,00000000,0000.19,0000.14,-000.07,-000.01,0000.17,0000.03,-000.14,0000.02,-000.15,18.0,24.0,13.2,09.1,0679.8,30.9
2021-05-27T08:51:00Z,00000200,00000000,-000.55,0000.01,-000.18,0000.37,0000.05,-000.18,-000.26,-000.07,0000.01,18.0,24.0,13.2,09.1,0679.8,30.9
2021-05-27T08:52:00Z,00000200,00000000,-000.75,0000.19,0000.01,-000.03,0000.11,-000.02,0000.48,0000.27,-000.08,18.0,24.0,13.2,09.1,0679.8,30.9
2021-05-27T08:53:00Z,00000200,00000000,-000.18,0000.20,0000.05,0000.10,-000.08,-000.01,-000.20,-000.44,0000.15,18.0,24.0,13.2,09.1,0679.8,30.9
2021-05-27T08:54:00Z,00000200,00000000,0000.56,0000.25,0000.06,-000.49,0000.03,-000.29,-000.03,0000.05,0000.23,18.0,24.1,13.2,09.1,0679.8,30.9
2021-05-27T08:55:00Z,00000200,00000000,0000.41,0000.33,0000.03,-000.32,0000.19,0000.00,-000.08,0000.29,-000.05,18.0,24.1,13.2,09.1,0679.8,30.9
2021-05-27T08:56:00Z,00000200,00000000,-000.04,0000.30,-000.01,0000.34,0000.13,-000.18,0000.41,-000.23,-000.07,18.0,24.1,13.1,09.1,0679.8,30.9
2021-05-27T08:57:00Z,00000200,40000000,,,,,,,-000.41,0000.05,-000.05,18.0,24.1,12.9,08.9,0679.8,30.9
2021-05-27T08:58:00Z,00000200,60000000,,,,,,,0000.04,-000.25,-000.26,17.9,24.2,13.0,08.8,0678.9,30.9
2021-05-27T08:59:00Z,00000200,20000000,,,,,,,-000.25,0000.51,0000.24,17.9,24.3,12.9,08.7,0678.8,30.9
